Location: Bailleul
(50.3375°N, 2.8513°E)
Time: 09:28:53
(UTC+00:00)

Cosmos 405 - Pass Details

Date: 16 June 2021
Orbit: 446 x 459 km, 81.3° (Epoch: 27 July)

Event Time Altitude Azimuth Distance (km) Brightness Sun altitude
Rises 22:27:51 0° 339° (NNW) 2,466 8.7 -14.1°
Reaches altitude 10° 22:30:05 10° 328° (NNW) 1,587 7.0 -14.2°
Maximum altitude 22:33:08 29° 266° (W) 847 4.4 -14.4°
Enters shadow 22:35:14 16° 214° (SW) 1,250 4.8 -14.5°
